TimeEST,TemperatureF,Dew PointF,Humidity,Sea Level PressureIn,VisibilityMPH,Wind Direction,Wind SpeedMPH,Gust SpeedMPH,PrecipitationIn,Events,Conditions,WindDirDegrees,DateUTC
12:53 AM,63.0,61.0,93,30.10,9.0,ESE,3.5,-,N/A,,Clear,110,2014-02-23 05:53:00
1:10 AM,63.0,61.0,93,30.09,9.0,SE,4.6,-,N/A,,Mostly Cloudy,130,2014-02-23 06:10:00
1:53 AM,64.0,62.1,93,30.09,9.0,SE,3.5,-,N/A,,Mostly Cloudy,140,2014-02-23 06:53:00
2:11 AM,64.9,63.0,93,30.08,9.0,SSE,3.5,-,N/A,,Overcast,150,2014-02-23 07:11:00
2:25 AM,64.9,63.0,93,30.07,9.0,SE,3.5,-,N/A,,Overcast,130,2014-02-23 07:25:00
2:53 AM,64.9,63.0,93,30.06,8.0,SSE,4.6,-,N/A,,Overcast,160,2014-02-23 07:53:00
3:08 AM,64.9,64.0,97,30.06,5.0,SSE,3.5,-,N/A,,Overcast,160,2014-02-23 08:08:00
3:43 AM,64.9,64.9,100,30.06,2.0,SSE,4.6,-,N/A,,Overcast,160,2014-02-23 08:43:00
3:50 AM,64.4,64.4,100,30.06,1.2,South,4.6,-,N/A,,Overcast,170,2014-02-23 08:50:00
3:53 AM,64.9,64.9,100,30.06,1.0,South,3.5,-,N/A,,Overcast,170,2014-02-23 08:53:00
4:04 AM,66.0,64.9,96,30.06,0.8,South,4.6,-,N/A,,Mist,180,2014-02-23 09:04:00
4:51 AM,66.2,64.4,94,30.06,1.0,South,5.8,-,N/A,,Mist,170,2014-02-23 09:51:00
4:53 AM,66.0,64.9,96,30.06,1.0,South,4.6,-,N/A,,Mist,170,2014-02-23 09:53:00
5:53 AM,66.9,66.0,97,30.08,1.8,South,3.5,-,N/A,,Overcast,190,2014-02-23 10:53:00
6:09 AM,66.9,66.0,97,30.08,2.0,South,3.5,-,N/A,,Overcast,180,2014-02-23 11:09:00
6:44 AM,66.9,66.0,97,30.08,3.0,South,5.8,-,N/A,,Overcast,180,2014-02-23 11:44:00
6:53 AM,66.9,66.0,97,30.08,3.0,South,4.6,-,N/A,,Overcast,180,2014-02-23 11:53:00
7:14 AM,66.9,66.0,97,30.08,2.5,South,3.5,-,N/A,,Overcast,170,2014-02-23 12:14:00
7:19 AM,66.9,66.0,97,30.08,3.0,South,3.5,-,N/A,,Overcast,170,2014-02-23 12:19:00
7:35 AM,66.9,66.0,97,30.09,3.0,South,4.6,-,N/A,,Overcast,170,2014-02-23 12:35:00
7:53 AM,68.0,66.9,96,30.09,4.0,South,5.8,-,N/A,,Overcast,190,2014-02-23 12:53:00
8:26 AM,68.0,66.9,96,30.09,1.8,SSW,5.8,-,N/A,,Overcast,200,2014-02-23 13:26:00
8:37 AM,68.0,66.9,96,30.09,2.5,South,5.8,-,N/A,,Overcast,190,2014-02-23 13:37:00
8:51 AM,68.0,66.2,94,30.09,1.8,South,5.8,-,N/A,,Overcast,190,2014-02-23 13:51:00
8:53 AM,68.0,66.9,96,30.09,2.0,South,5.8,-,N/A,,Overcast,190,2014-02-23 13:53:00
9:22 AM,69.1,66.9,93,30.10,3.0,South,8.1,-,N/A,,Overcast,190,2014-02-23 14:22:00
9:53 AM,69.1,66.9,93,30.10,3.0,SSW,4.6,-,N/A,,Overcast,210,2014-02-23 14:53:00
10:30 AM,71.1,68.0,90,30.10,6.0,SSE,4.6,-,N/A,,Overcast,160,2014-02-23 15:30:00
10:53 AM,71.1,68.0,90,30.11,7.0,South,5.8,-,N/A,,Overcast,170,2014-02-23 15:53:00
11:08 AM,73.0,68.0,84,30.11,8.0,Calm,Calm,-,N/A,,Mostly Cloudy,0,2014-02-23 16:08:00
11:24 AM,75.0,68.0,79,30.10,10.0,Variable,3.5,-,N/A,,Partly Cloudy,0,2014-02-23 16:24:00
11:53 AM,75.9,68.0,76,30.09,10.0,SSE,5.8,-,N/A,,Clear,150,2014-02-23 16:53:00
12:53 PM,79.0,68.0,69,30.06,10.0,South,6.9,-,N/A,,Scattered Clouds,180,2014-02-23 17:53:00
1:53 PM,80.1,68.0,67,30.02,10.0,SSE,6.9,-,N/A,,Partly Cloudy,160,2014-02-23 18:53:00
2:53 PM,82.0,66.0,58,30.00,10.0,WSW,9.2,-,N/A,,Mostly Cloudy,250,2014-02-23 19:53:00
3:15 PM,78.1,68.0,71,30.00,4.0,NW,9.2,-,0.02,Rain-Thunderstorm,Light Thunderstorms and Rain,310,2014-02-23 20:15:00
3:19 PM,75.9,69.1,79,30.01,1.8,NW,10.4,-,0.08,Rain-Thunderstorm,Heavy Thunderstorms and Rain,310,2014-02-23 20:19:00
3:28 PM,71.1,62.1,73,30.01,0.2,NNW,11.5,41.4,0.44,Rain-Thunderstorm,Heavy Thunderstorms and Rain,340,2014-02-23 20:28:00
3:36 PM,72.0,64.9,78,30.00,2.0,NNW,10.4,-,0.44,Rain-Thunderstorm,Light Thunderstorms and Rain,340,2014-02-23 20:36:00
3:43 PM,71.1,66.0,84,30.02,10.0,North,21.9,27.6,0.44,Thunderstorm,Thunderstorm,350,2014-02-23 20:43:00
3:53 PM,69.1,64.9,87,30.02,10.0,North,18.4,27.6,0.44,Rain-Thunderstorm,Light Thunderstorms and Rain,360,2014-02-23 20:53:00
4:01 PM,68.0,66.0,93,30.03,9.0,North,19.6,-,0.00,Rain-Thunderstorm,Light Rain,350,2014-02-23 21:01:00
4:14 PM,68.0,66.0,93,30.03,4.0,North,15.0,-,0.01,Rain,Rain,360,2014-02-23 21:14:00
4:53 PM,68.0,64.0,87,30.04,9.0,NNW,11.5,-,0.04,Rain,Light Rain,340,2014-02-23 21:53:00
5:26 PM,69.1,64.9,87,30.05,10.0,North,13.8,-,0.00,Rain,Light Rain,360,2014-02-23 22:26:00
5:53 PM,68.0,64.0,87,30.06,10.0,North,9.2,-,0.00,,Scattered Clouds,10,2014-02-23 22:53:00
6:11 PM,66.9,64.0,90,30.07,10.0,North,8.1,-,N/A,,Mostly Cloudy,10,2014-02-23 23:11:00
6:44 PM,66.9,63.0,87,30.07,10.0,NNE,8.1,-,N/A,,Scattered Clouds,20,2014-02-23 23:44:00
6:53 PM,66.0,63.0,90,30.06,10.0,North,5.8,-,N/A,,Partly Cloudy,360,2014-02-23 23:53:00
7:18 PM,66.0,64.0,93,30.06,10.0,ENE,4.6,-,N/A,,Scattered Clouds,60,2014-02-24 00:18:00
7:53 PM,64.9,63.0,93,30.06,10.0,ENE,5.8,-,N/A,,Partly Cloudy,60,2014-02-24 00:53:00
8:09 PM,64.9,63.0,93,30.06,10.0,NE,5.8,-,N/A,,Mostly Cloudy,50,2014-02-24 01:09:00
8:53 PM,64.9,63.0,93,30.06,10.0,East,4.6,-,N/A,,Overcast,80,2014-02-24 01:53:00
9:35 PM,64.9,63.0,93,30.07,10.0,Calm,Calm,-,N/A,,Scattered Clouds,0,2014-02-24 02:35:00
9:53 PM,64.0,63.0,96,30.07,10.0,Calm,Calm,-,N/A,,Partly Cloudy,0,2014-02-24 02:53:00
10:53 PM,64.9,63.0,93,30.07,10.0,Calm,Calm,-,N/A,,Clear,0,2014-02-24 03:53:00
11:02 PM,64.9,63.0,93,30.07,10.0,East,3.5,-,N/A,,Partly Cloudy,90,2014-02-24 04:02:00
11:53 PM,64.0,63.0,96,30.07,10.0,Calm,Calm,-,N/A,,Partly Cloudy,0,2014-02-24 04:53:00